Weather History for Peachtree City, GA

Change the Weather History Date:

Wednesday, May 22, 2013

  Actual Average Record
Temperature  
Mean Temperature 75 °F 71 °F  
Max Temperature 87 °F 83 °F 93 °F (2011)
Min Temperature 63 °F 59 °F 39 °F (2002)
Degree Days  
Heating Degree Days 0 1  
Month to date heating degree days 58 30  
Since 1 July heating degree days 240 2949  
Cooling Degree Days 10 6  
Month to date cooling degree days 63 88  
Year to date cooling degree days 93 124  
Growing Degree Days 24 (Base 50)    
Moisture  
Dew Point 63 °F    
Average Humidity 63    
Maximum Humidity 93    
Minimum Humidity 32    
Precipitation  
Precipitation 0.00 in 0.11 in 1.42 in (2003)
Month to date precipitation 4.90 2.17  
Year to date precipitation 8.77 20.30  
Snow  
Snow 0.00 in - - ()
Month to date snowfall 0.0  
Since 1 July snowfall 0.0  
Snow Depth 0.00 in    
Sea Level Pressure  
Sea Level Pressure 29.94 in    
Wind  
Wind Speed 3 mph (SW)    
Max Wind Speed 10 mph    
Max Gust Speed 17 mph    
Visibility 7 miles    
Events      
T = Trace of Precipitation, MM = Missing Value Source: NWS Daily Summary

Daily Weather History Graph

Daily Weather History Graph

Search for Another Location

Airport:

Trip Planner

Search our weather history database for the weather conditions in past years. The results will help you decide how hot, cold, wet, or windy it might be!

Date:

Astronomy

May. 22, 2013 Rise Set
Actual Time 6:33 AM EDT 8:36 PM EDT
Civil Twilight 6:05 AM EDT 9:04 PM EDT
Nautical Twilight 5:31 AM EDT 9:38 PM EDT
Astronomical Twilight 4:55 AM EDT 10:14 PM EDT
Moon 6:04 PM EDT (5/22) 4:28 AM EDT (5/22)
Length of Visible Light 14h 58m
Length of Day
14h 02m
Waxing Gibbous, 91% of the Moon is Illuminated
May 22
Waxing Gibbous
May 25
Full
May 31
Last Quarter
Jun 8
New
Jun 16
First Quarter

Hourly Weather History & Observations

Time (EDT) Temp. Heat Index Dew Point Humidity Pressure Visibility Wind Dir Wind Speed Gust Speed Precip Events Conditions
12:53 AM 71.1 °F - 64.9 °F 81% 29.98 in 8.0 mi Calm Calm - N/A   Clear
1:53 AM 69.1 °F - 64.9 °F 87% 29.96 in 7.0 mi ESE 3.5 mph - N/A   Clear
2:53 AM 66.9 °F - 64.0 °F 90% 29.95 in 6.0 mi Calm Calm - N/A   Clear
3:53 AM 66.0 °F - 64.0 °F 93% 29.95 in 5.0 mi Calm Calm - N/A   Clear
4:53 AM 64.0 °F - 63.0 °F 96% 29.95 in 4.0 mi Calm Calm - N/A   Clear
5:53 AM 64.0 °F - 62.1 °F 93% 29.97 in 4.0 mi Calm Calm - N/A   Clear
6:53 AM 63.0 °F - 61.0 °F 93% 29.96 in 3.0 mi Calm Calm - N/A   Clear
7:53 AM 66.0 °F - 63.0 °F 90% 29.99 in 4.0 mi Calm Calm - N/A   Mostly Cloudy
8:53 AM 71.1 °F - 66.0 °F 84% 29.99 in 6.0 mi Calm Calm - N/A   Haze
9:53 AM 75.9 °F - 66.9 °F 74% 29.98 in 7.0 mi Calm Calm - N/A   Clear
10:53 AM 79.0 °F - 59.0 °F 50% 29.98 in 8.0 mi Variable 3.5 mph - N/A   Clear
11:53 AM 82.0 °F 81.6 °F 55.9 °F 41% 29.98 in 8.0 mi WSW 6.9 mph - N/A   Clear
12:53 PM 82.9 °F 81.9 °F 54.0 °F 37% 29.98 in 9.0 mi West 9.2 mph - N/A   Clear
1:53 PM 84.0 °F - 52.0 °F 33% 29.96 in 9.0 mi Variable 5.8 mph - N/A   Clear
2:53 PM 86.0 °F 86.3 °F 62.1 °F 44% 29.94 in 7.0 mi Variable 6.9 mph - N/A   Clear
3:53 PM 84.9 °F 85.9 °F 63.0 °F 48% 29.91 in 9.0 mi West 5.8 mph - N/A   Scattered Clouds
4:53 PM 84.0 °F 85.8 °F 64.9 °F 53% 29.89 in 8.0 mi South 8.1 mph - N/A   Partly Cloudy
5:53 PM 84.9 °F 85.9 °F 63.0 °F 48% 29.87 in 8.0 mi SW 6.9 mph - N/A   Clear
6:53 PM 84.0 °F 85.4 °F 64.0 °F 51% 29.88 in 8.0 mi SW 3.5 mph - N/A   Clear
7:53 PM 81.0 °F 83.0 °F 66.0 °F 60% 29.88 in 8.0 mi South 3.5 mph - N/A   Clear
8:53 PM 75.0 °F - 68.0 °F 79% 29.89 in 6.0 mi Calm Calm - N/A   Haze
9:53 PM 73.0 °F - 66.9 °F 81% 29.91 in 7.0 mi Calm Calm - N/A   Clear
10:53 PM 73.0 °F - 64.9 °F 76% 29.92 in 9.0 mi Calm Calm - N/A   Clear
11:53 PM 68.0 °F - 66.0 °F 93% 29.93 in 6.0 mi SSW 3.5 mph - N/A   Partly Cloudy